Easton, MD

4:35 AM EDT on October 17, 2019 (GMT -0400)
Easton / Newnam

Weather History for KESN - September, 2019

Change the Weather History Date:

Wednesday, September 18, 2019

  Actual Average Record
Temperature  
Mean Temperature 66 °F -  
Max Temperature 77 °F 82 °F 92 °F (1970)
Min Temperature 55 °F 59 °F 41 °F (1959)
Cooling Degree Days 1    
Growing Degree Days 16 (Base 50)    
Moisture  
Dew Point 54 °F    
Average Humidity 76    
Maximum Humidity 94    
Minimum Humidity 41    
Precipitation  
Precipitation 0.00 in - - ()
Sea Level Pressure  
Sea Level Pressure 30.21 in    
Wind  
Wind Speed 3 mph (NE)    
Max Wind Speed 13 mph    
Max Gust Speed -    
Visibility 10 miles    
Events      
Averages and records for this station are not official NWS values.
T = Trace of Precipitation, MM = Missing Value Source: NWS Daily Summary

Daily Weather History Graph

Daily Weather History Graph

Search for Another Location

Airport or City:

Astronomy

Sep. 18, 2019 Rise Set
Actual Time 6:48 AM EDT 7:08 PM EDT
Civil Twilight 6:21 AM EDT 7:34 PM EDT
Nautical Twilight 5:50 AM EDT 8:05 PM EDT
Astronomical Twilight 5:18 AM EDT 8:37 PM EDT
Moon 9:43 PM EDT (9/18) 10:47 AM EDT (9/18)
Length of Visible Light 13h 13m
Length of Day
12h 19m
Waning Gibbous, 82% of the Moon is Illuminated
Sep 18
Waning Gibbous
Sep 21
Last Quarter
Sep 28
New
Oct 5
First Quarter
Oct 13
Full

Hourly Weather History & Observations

Time (EDT) Temp. Dew Point Humidity Pressure Visibility Wind Dir Wind Speed Gust Speed Precip Events Conditions
12:19 AM 58.8 °F 55.2 °F 88% 30.16 in 10.0 mi Calm Calm - N/A   Clear
12:39 AM 59.2 °F 55.4 °F 87% 30.16 in 10.0 mi Calm Calm - N/A   Clear
1:00 AM 59.0 °F 55.9 °F 90% 30.16 in 10.0 mi Calm Calm - N/A   Clear
1:20 AM 57.7 °F 55.0 °F 91% 30.16 in 10.0 mi Calm Calm - N/A   Clear
1:40 AM 57.6 °F 54.9 °F 91% 30.17 in 10.0 mi NNE 3.5 mph - N/A   Clear
2:00 AM 57.0 °F 54.3 °F 91% 30.17 in 10.0 mi NNE 3.5 mph - N/A   Clear
2:19 AM 57.7 °F 54.3 °F 88% 30.17 in 10.0 mi Calm Calm - N/A   Clear
2:39 AM 57.2 °F 54.5 °F 91% 30.17 in 10.0 mi Calm Calm - N/A   Clear
3:00 AM 56.3 °F 53.8 °F 91% 30.17 in 10.0 mi Calm Calm - N/A   Clear
3:20 AM 56.7 °F 53.4 °F 89% 30.17 in 10.0 mi Calm Calm - N/A   Clear
3:40 AM 57.4 °F 54.5 °F 90% 30.17 in 10.0 mi Calm Calm - N/A   Clear
4:00 AM 56.7 °F 53.8 °F 90% 30.18 in 10.0 mi NNE 4.6 mph - N/A   Clear
4:20 AM 57.2 °F 54.1 °F 89% 30.18 in 10.0 mi NNE 3.5 mph - N/A   Clear
4:40 AM 55.8 °F 53.1 °F 91% 30.18 in 10.0 mi Calm Calm - N/A   Clear
5:00 AM 56.7 °F 53.8 °F 90% 30.18 in 10.0 mi North 3.5 mph - N/A   Clear
5:20 AM 56.3 °F 53.2 °F 89% 30.18 in 10.0 mi North 3.5 mph - N/A   Clear
5:40 AM 55.9 °F 53.1 °F 90% 30.18 in 10.0 mi NNE 3.5 mph - N/A   Clear
5:50 AM 55.4 °F 53.6 °F 94% 30.18 in 10.0 mi Calm Calm - N/A   Clear
6:50 AM 55.4 °F 53.6 °F 94% 30.20 in 10.0 mi Calm Calm - N/A   Clear
7:45 AM 59.0 °F 55.4 °F 88% 30.21 in 10.0 mi North 3.5 mph - N/A   Clear
8:45 AM 64.4 °F 57.2 °F 77% 30.23 in 10.0 mi NE 8.1 mph - N/A   Clear
9:51 AM 71.6 °F 57.2 °F 60% 30.24 in 10.0 mi NNE 10.4 mph - N/A   Partly Cloudy
10:46 AM 73.4 °F 53.6 °F 50% 30.24 in 10.0 mi NE 9.2 mph - N/A   Scattered Clouds
11:50 AM 75.2 °F 53.6 °F 47% 30.24 in 10.0 mi NNE 11.5 mph - N/A   Mostly Cloudy
12:50 PM 73.4 °F 51.8 °F 47% 30.24 in 10.0 mi NE 8.1 mph - N/A   Mostly Cloudy
1:50 PM 73.4 °F 50.0 °F 44% 30.23 in 10.0 mi NE 12.7 mph - N/A   Mostly Cloudy
2:50 PM 75.2 °F 51.8 °F 44% 30.22 in 10.0 mi NE 6.9 mph - N/A   Mostly Cloudy
3:50 PM 77.0 °F 51.8 °F 41% 30.21 in 10.0 mi NNE 8.1 mph - N/A   Scattered Clouds
4:54 PM 75.2 °F 50.0 °F 41% 30.22 in 10.0 mi North 10.4 mph - N/A   Scattered Clouds
5:50 PM 75.2 °F 51.8 °F 44% 30.22 in 10.0 mi East 10.4 mph - N/A   Scattered Clouds
6:52 PM 69.8 °F 53.6 °F 56% 30.24 in 10.0 mi East 4.6 mph - N/A   Scattered Clouds
7:53 PM 66.2 °F 55.4 °F 68% 30.26 in 10.0 mi East 6.9 mph - N/A   Scattered Clouds
8:50 PM 64.4 °F 55.4 °F 73% 30.28 in 10.0 mi East 4.6 mph - N/A   Scattered Clouds
9:50 PM 62.6 °F 55.4 °F 77% 30.29 in 10.0 mi East 6.9 mph - N/A   Scattered Clouds
10:20 PM 62.6 °F 54.5 °F 75% 30.29 in 10.0 mi East 4.6 mph - N/A   Clear
10:40 PM 61.9 °F 54.5 °F 77% 30.30 in 10.0 mi East 4.6 mph - N/A   Clear
11:00 PM 61.2 °F 54.1 °F 78% 30.30 in 10.0 mi ENE 3.5 mph - N/A   Clear
11:20 PM 60.3 °F 54.0 °F 80% 30.30 in 10.0 mi ENE 3.5 mph - N/A   Clear
11:40 PM 59.9 °F 54.0 °F 81% 30.31 in 10.0 mi ENE 3.5 mph - N/A   Clear